This demonstration page uses our WeatherBlox Daily Observations layout. Learn more.

Left ArrowRight Arrow

Hourly Observations for September 4, 2020

Temp ( °F °C ) Dew Point ( °F °C ) Humidity (%) Winds ( mph kmh ) Pressure ( in mb ) Visibility ( mi km ) Precip ( " mm )
12:15 am 00:15 Clear 57 14 47 8.3 69 69 SSE 3 6 30.13 1020 10 16 0.00 0.00
12:35 am 00:35 Clear 58 14.5 46 7.6 64 64 SE 5 7 30.13 1020 10 16 0.00 0.00
12:55 am 00:55 Clear 57 13.7 46 7.5 66 66 SSE 8 13 30.13 1020 7 11 0.00 0.00
1:15 am 01:15 Clear 56 13.6 45 7.1 65 65 SSE 5 7 30.13 1020 7 11 0.00 0.00
1:35 am 01:35 Clear 55 12.9 46 7.5 70 70 S 3 6 30.14 1021 10 16 0.00 0.00
1:55 am 01:55 Clear 56 13.6 45 7 65 65 S 3 6 30.13 1020 10 16 0.00 0.00
2:15 am 02:15 Clear 56 13.2 45 7 66 66 S 3 6 30.14 1021 10 16 0.00 0.00
2:35 am 02:35 Clear 54 12.4 43 6.3 67 67 Calm 30.15 1021 10 16 0.00 0.00
2:55 am 02:55 Clear 55 12.8 42 5.5 61 61 S 7 11 30.15 1021 10 16 0.00 0.00
3:15 am 03:15 Clear 57 13.8 44 6.6 62 62 S 8 13 30.14 1021 10 16 0.00 0.00
3:35 am 03:35 Clear 56 13.6 45 7 65 65 S 8 13 30.14 1021 10 16 0.00 0.00
3:55 am 03:55 Clear 59 14.9 45 7.1 60 60 S 12 19 30.13 1020 10 16 0.00 0.00
4:15 am 04:15 Clear 58 14.2 45 7.2 63 63 SSW 7 11 30.14 1021 10 16 0.00 0.00
4:35 am 04:35 Clear 58 14.3 45 7.2 63 63 SSW 9 15 30.13 1020 10 16 0.00 0.00
4:55 am 04:55 Clear 58 14.3 46 7.5 64 64 SW 8 13 30.14 1021 10 16 0.00 0.00
5:15 am 05:15 Clear 58 14.3 46 7.5 64 64 SW 6 9 30.14 1021 10 16 0.00 0.00
5:35 am 05:35 Clear 57 14 46 7.5 65 65 SW 7 11 30.13 1020 10 16 0.00 0.00
5:55 am 05:55 Clear 58 14.5 45 7.3 62 62 SW 8 13 30.13 1020 10 16 0.00 0.00
6:15 am 06:15 Clear 58 14.3 46 7.5 64 64 SW 8 13 30.13 1020 10 16 0.00 0.00
6:35 am 06:35 Clear 59 14.9 45 7.3 61 61 SW 7 11 30.14 1021 10 16 0.00 0.00
6:55 am 06:55 Clear 57 13.8 45 7 64 64 WSW 5 7 30.15 1021 10 16 0.00 0.00
7:15 am 07:15 Sunny 57 14.1 45 7 63 63 WSW 7 11 30.14 1021 10 16 0.00 0.00
7:35 am 07:35 Sunny 59 15 45 7.1 59 59 SW 13 20 30.14 1021 10 16 0.00 0.00
7:55 am 07:55 Sunny 60 15.4 45 7.3 59 59 SW 7 11 30.14 1021 10 16 0.00 0.00
8:15 am 08:15 Sunny 62 16.8 46 7.8 56 56 SW 9 15 30.13 1020 10 16 0.00 0.00
8:35 am 08:35 Sunny 63 17.2 47 8.3 56 56 WSW 6 9 30.13 1020 10 16 0.00 0.00
8:55 am 08:55 Sunny 64 18 47 8.5 54 54 WSW 8 13 30.13 1020 10 16 0.00 0.00
9:15 am 09:15 Sunny 65 18.6 47 8.4 52 52 WSW 10 17 30.12 1020 10 16 0.00 0.00
9:35 am 09:35 Sunny 67 19.5 47 8.4 49 49 WSW 9 15 30.12 1020 10 16 0.00 0.00
9:55 am 09:55 Sunny 69 20.4 47 8.3 46 46 WSW 10 17 30.11 1020 10 16 0.00 0.00
10:15 am 10:15 Sunny 71 21.5 48 8.9 45 45 W 8 13 30.11 1020 10 16 0.00 0.00
10:35 am 10:35 Sunny 72 22.4 48 8.8 42 42 WSW 9 15 30.10 1019 10 16 0.00 0.00
10:55 am 10:55 Sunny 74 23.2 47 8.5 39 39 SW 10 17 30.09 1019 10 16 0.00 0.00
11:15 am 11:15 Sunny 76 24.3 47 8.6 37 37 WSW 7 11 30.08 1019 10 16 0.00 0.00
11:35 am 11:35 Sunny 77 25.2 47 8.3 34 34 SW 14 22 30.08 1019 10 16 0.00 0.00
11:55 am 11:55 Sunny 79 26 47 8.6 33 33 SW 12 19 30.06 1018 10 16 0.00 0.00
12:15 pm 12:15 Sunny 79 26.3 47 8.2 32 32 SSW 13 20 30.06 1018 10 16 0.00 0.00
12:35 pm 12:35 Sunny 81 27.2 47 8.5 31 31 SW 14 22 30.05 1018 10 16 0.00 0.00
12:55 pm 12:55 Sunny 82 27.7 47 8.3 29 29 W 9 15 30.05 1017 10 16 0.00 0.00
1:15 pm 13:15 Sunny 83 28.1 47 8.5 29 29 WSW 7 11 30.03 1017 10 16 0.00 0.00
1:35 pm 13:35 Sunny 84 28.8 47 8.4 28 28 SW 12 19 30.03 1017 10 16 0.00 0.00
1:55 pm 13:55 Sunny 84 29.1 48 8.7 28 28 WSW 6 9 30.02 1016 10 16 0.00 0.00
2:15 pm 14:15 Sunny 86 29.9 48 8.7 27 27 SW 12 19 30.01 1016 10 16 0.00 0.00
2:35 pm 14:35 Sunny 87 30.4 47 8.3 25 25 W 8 13 29.99 1016 10 16 0.00 0.00
2:55 pm 14:55 Sunny 88 31.1 46 8 24 24 SW 9 15 29.99 1016 10 16 0.00 0.00
3:15 pm 15:15 Sunny 89 31.4 46 7.8 23 23 SSW 8 13 29.98 1015 10 16 0.00 0.00
3:35 pm 15:35 Sunny 89 31.6 46 7.8 23 23 SSW 8 13 29.98 1015 10 16 0.00 0.00
3:55 pm 15:55 Sunny 89 31.9 47 8.1 23 23 SW 3 6 29.96 1015 10 16 0.00 0.00
4:15 pm 16:15 Sunny 90 32.4 46 7.8 22 22 S 5 7 29.96 1015 10 16 0.00 0.00
4:35 pm 16:35 Sunny 90 32.4 46 7.6 21 21 S 6 9 29.95 1014 10 16 0.00 0.00
4:55 pm 16:55 Sunny 91 32.8 46 7.7 21 21 S 9 15 29.94 1014 10 16 0.00 0.00
5:15 pm 17:15 Sunny 91 32.9 45 7.4 20 20 S 5 7 29.94 1014 10 16 0.00 0.00
5:35 pm 17:35 Sunny 91 33 46 7.7 21 21 SSE 6 9 29.93 1014 10 16 0.00 0.00
5:55 pm 17:55 Sunny 91 32.9 47 8.1 21 21 S 7 11 29.94 1014 10 16 0.00 0.00
6:15 pm 18:15 Sunny 91 32.7 46 8 22 22 SE 8 13 29.94 1014 10 16 0.00 0.00
6:35 pm 18:35 Sunny 89 31.8 48 9.1 24 24 ESE 10 17 29.94 1014 10 16 0.00 0.00
6:55 pm 18:55 Sunny 87 30.5 51 10.8 30 30 E 12 19 29.95 1014 10 16 0.00 0.00
7:15 pm 19:15 Sunny 85 29.4 51 10.6 31 31 ESE 10 17 29.97 1015 10 16 0.00 0.00
7:35 pm 19:35 Sunny 83 28.3 52 11.1 34 34 E 7 11 29.98 1015 10 16 0.00 0.00
7:55 pm 19:55 Sunny 81 27.1 53 11.5 38 38 E 8 13 30.00 1016 10 16 0.00 0.00
8:15 pm 20:15 Clear 80 26.4 53 11.4 39 39 ESE 8 13 30.01 1016 10 16 0.00 0.00
8:35 pm 20:35 Clear 78 25.5 53 11.8 42 42 ESE 8 13 30.03 1017 10 16 0.00 0.00
8:55 pm 20:55 Clear 76 24.7 53 11.5 44 44 ESE 6 9 30.05 1018 10 16 0.00 0.00
9:15 pm 21:15 Clear 72 22 55 12.5 55 55 ENE 5 7 30.08 1019 10 16 0.00 0.00
9:35 pm 21:35 Clear 69 20.7 55 13 62 62 E 5 7 30.11 1019 7 11 0.00 0.00
9:55 pm 21:55 Clear 67 19.6 56 13.1 66 66 ENE 5 7 30.12 1020 7 11 0.00 0.00
10:15 pm 22:15 Clear 66 19 56 13.5 71 71 E 5 7 30.13 1020 10 16 0.00 0.00
10:35 pm 22:35 Clear 65 18.3 55 12.8 70 70 E 6 9 30.15 1021 10 16 0.00 0.00
10:55 pm 22:55 Clear 65 18.6 54 12.4 67 67 ESE 5 7 30.14 1021 10 16 0.00 0.00
11:15 pm 23:15 Clear 65 18.2 54 12 67 67 E 5 7 30.15 1021 10 16 0.00 0.00
11:35 pm 23:35 Clear 64 17.5 54 12.2 71 71 E 6 9 30.17 1022 10 16 0.00 0.00
11:55 pm 23:55 Clear 63 17.1 54 12.1 73 73 E 5 7 30.18 1022 10 16 0.00 0.00

Powered by AerisWeather